Theta_e
302 303 304 301 300 301 303 303 303 301 297 297 299 300 300 302 300 300 301 301 300 298 297 295 293 292 291 291 290 290 290 290 290 291 290 290 291 291 290 290 290 290 290 290
301 302 296 298 299 301 302 303 302 298 297 296 298 296 297 300 301 300 300 301 301 300 298 295 293 292 291 291 290 290 290 290 291 291 291 291 290 290 290 290 290 290 290 290
300 295 294 296 298 300 298 299 299 298 297 297 296 298 302 301 301 301 301 300 301 300 298 295 293 292 290 290 290 290 290 290 291 291 290 290 290 290 289 289 289 289 289 289
294 293 295 296 296 295 299 295 296 297 297 298 298 295 302 300 299 299 300 300 300 300 299 297 294 293 291 289 289 289 290 290 290 290 290 290 289 289 289 289 289 289 289 289
293 293 295 297 293 292 295 294 296 297 297 297 298 295 301 302 299 298 299 299 299 299 299 298 295 294 292 290 289 289 289 289 290 290 290 289 289 289 289 289 289 288 288 288
291 291 291 292 292 293 294 296 297 297 297 298 297 296 298 301 301 301 300 299 298 298 299 298 296 294 292 290 290 289 289 289 289 290 290 290 289 289 289 288 288 288 288 288
292 291 290 291 293 294 295 297 303 302 300 304 296 295 296 301 298 298 297 297 297 297 298 298 296 294 292 291 290 289 289 290 290 290 290 289 289 289 288 288 288 288 287 287
296 296 291 290 292 295 295 297 303 300 304 300 296 296 299 299 298 298 297 296 296 296 297 297 296 294 293 291 290 289 289 289 290 290 290 289 289 289 289 288 288 288 287 287
298 293 289 289 290 292 295 294 295 294 291 294 297 299 299 297 298 298 297 297 296 295 296 296 296 295 293 292 291 290 290 289 290 290 290 290 289 289 289 288 288 288 287 287
297 292 290 289 290 291 292 292 294 295 296 297 301 299 297 296 297 296 297 297 296 295 295 295 295 295 294 293 291 290 290 289 289 289 289 289 289 289 288 288 288 288 287 287
294 297 291 289 289 292 290 292 293 295 296 299 298 298 299 297 296 295 296 296 295 295 294 295 295 295 294 293 292 291 290 290 289 289 290 290 289 289 288 288 288 288 287 287
294 295 292 293 288 288 290 294 294 296 295 294 296 295 298 297 297 297 295 295 294 294 294 294 294 294 294 293 292 291 290 290 290 290 289 289 289 289 288 288 288 287 287 287
290 296 292 295 291 288 287 291 294 293 293 293 294 296 295 295 295 296 296 294 294 294 293 293 293 293 294 293 292 291 290 290 290 289 289 289 289 289 288 288 288 287 287 287
293 293 296 300 300 290 287 288 292 289 290 294 297 296 295 294 294 296 295 294 294 293 292 292 292 292 293 293 292 291 290 290 289 289 289 289 289 289 288 288 288 287 287 287
291 289 287 289 292 292 289 286 289 289 292 292 296 296 295 295 295 296 295 293 293 292 292 291 291 291 292 292 292 291 290 290 289 289 289 290 289 289 289 288 287 287 287 287
284 289 283 287 291 291 288 288 288 291 292 292 293 294 295 295 294 294 293 292 292 291 291 290 290 291 291 291 291 291 289 289 289 289 289 289 289 289 288 288 287 287 286 286
285 284 286 290 290 290 289 288 289 289 286 291 291 293 293 292 292 292 291 290 290 290 290 289 289 290 291 290 290 290 289 289 289 289 289 289 288 288 288 287 286 286 286 285
287 287 289 288 285 288 292 290 287 290 291 290 290 291 292 291 291 290 289 289 289 289 288 289 289 290 289 289 289 288 288 288 288 288 288 287 287 287 286 286 286 286 285 285
285 289 287 287 286 292 292 287 286 287 289 289 291 291 294 292 290 288 288 288 288 287 287 288 288 289 289 288 288 288 288 287 287 287 286 286 285 285 285 285 285 285 285 285
285 284 288 284 289 291 290 288 290 289 288 289 290 291 291 290 287 284 286 287 287 287 287 287 287 287 287 286 286 286 286 285 285 285 285 285 285 285 285 285 285 285 285 285
282 283 286 286 286 290 288 287 289 287 290 289 292 292 290 287 289 286 285 285 286 286 286 286 286 286 286 285 285 285 285 284 284 284 284 284 284 284 284 284 284 284 284 284
286 287 284 285 286 289 287 286 289 288 288 288 289 289 289 287 286 285 284 285 285 285 284 285 285 284 283 283 283 283 283 283 283 283 283 283 283 283 283 283 283 283 283 282
289 289 289 289 289 287 287 288 288 288 287 287 287 286 286 285 284 284 284 283 283 282 282 282 282 282 282 282 282 282 282 282 281 282 282 282 282 282 282 281 281 281 280 279
283 287 287 288 285 286 287 287 287 287 287 286 285 285 285 284 283 282 281 279 279 279 280 280 280 280 280 280 280 280 280 280 280 280 280 280 279 279 278 277 276 276 275 275
286 286 284 286 287 287 287 287 286 285 285 283 283 282 282 282 280 280 279 278 278 278 278 279 279 278 278 278 278 278 278 278 278 277 277 276 275 275 275 274 274 274 273 272
286 286 288 290 290 288 286 286 285 284 282 282 282 280 279 279 278 277 277 277 277 277 277 277 277 276 276 275 274 274 274 274 274 273 273 273 273 273 273 273 273 273 272 272
Wind_Speed
2 3 2 7 6 3 3 2 1 5 2 2 6 10 9 12 19 16 15 15 17 16 14 16 15 14 13 12 11 9 7 6 5 4 2 2 4 5 7 8 9 10 11 11
2 1 5 4 4 1 0 1 0 4 2 1 6 13 11 14 14 24 20 17 16 16 16 20 18 17 16 15 14 12 10 8 6 4 2 1 3 5 6 8 9 10 11 12
1 4 3 2 2 3 4 3 3 2 4 4 6 6 3 1 0 5 18 13 14 19 21 23 20 18 16 17 16 14 12 10 7 6 5 3 3 4 7 8 8 10 12 13
6 2 1 2 5 4 4 3 1 2 4 2 2 4 5 4 5 4 5 11 13 16 20 23 23 19 19 17 16 15 13 11 9 7 6 4 3 2 3 6 8 9 11 13
2 1 1 2 2 3 3 1 3 2 3 3 3 4 4 1 5 4 5 5 9 14 20 24 25 20 20 20 19 16 14 12 10 8 7 6 4 2 3 5 7 9 10 12
4 2 4 3 2 3 4 2 2 1 1 2 3 3 3 3 1 1 4 5 3 6 14 19 21 19 19 21 21 20 17 15 13 10 8 6 4 2 3 5 6 7 9 11
3 2 2 1 3 0 2 1 1 3 3 4 2 1 8 1 4 3 6 6 5 2 8 16 19 22 21 24 24 21 20 18 16 13 10 7 5 2 2 3 5 6 9 11
6 3 3 1 3 1 4 2 3 6 3 1 1 5 5 4 3 3 2 2 4 3 4 13 19 23 23 25 25 23 22 20 18 16 13 10 7 4 1 2 4 6 8 10
4 2 3 5 3 3 3 2 1 6 2 3 4 5 5 5 4 4 5 6 4 4 5 10 16 21 23 26 27 25 23 22 20 18 16 14 10 7 3 1 4 6 8 10
3 5 2 2 2 1 2 3 3 2 2 4 5 4 5 7 8 7 7 7 5 5 4 9 15 22 24 25 26 25 24 23 22 20 19 16 13 10 7 4 4 7 10 12
2 4 1 2 6 5 2 2 0 2 3 4 2 5 4 9 9 9 9 5 5 5 5 1 9 19 27 26 28 27 27 25 24 23 21 19 16 13 10 7 6 7 10 13
3 5 3 3 3 4 2 2 5 4 5 1 1 6 4 8 6 13 10 5 3 5 12 10 10 18 25 26 28 28 28 28 25 23 21 20 19 16 13 11 9 9 10 14
5 2 3 2 2 3 3 5 3 4 1 6 5 5 3 5 6 10 10 2 1 8 8 9 9 12 21 25 27 27 27 27 25 24 22 21 20 19 17 14 13 12 13 14
3 2 5 6 4 5 5 6 9 6 3 3 9 6 4 7 7 8 9 3 7 6 9 12 10 10 16 23 26 27 27 26 26 24 22 20 19 19 18 17 16 15 16 16
3 5 2 2 3 2 5 5 11 9 12 8 8 18 11 8 2 4 6 2 5 6 7 7 10 9 9 18 23 25 27 27 26 24 22 20 20 19 19 19 19 18 18 18
2 3 2 3 5 6 5 6 11 19 10 16 20 21 7 5 1 6 5 5 7 5 6 8 7 7 7 11 20 24 25 26 25 24 22 21 21 21 21 21 20 20 20 20
6 6 3 4 1 2 9 16 20 9 7 14 12 14 7 5 8 5 3 4 3 3 4 6 5 4 4 4 12 20 22 23 21 20 21 22 22 22 21 21 21 21 21 21
6 5 3 3 1 3 5 0 6 17 7 18 8 4 7 9 8 3 1 2 3 2 3 3 4 2 2 2 5 12 16 18 20 19 19 20 21 21 21 21 22 22 23 23
4 4 2 4 4 7 4 6 8 10 12 18 19 20 10 13 8 5 3 5 5 7 4 3 3 3 3 5 8 12 14 16 17 18 18 19 18 19 20 21 22 23 25 27
3 3 3 3 5 9 4 4 11 5 8 5 22 13 15 16 4 3 10 8 6 6 5 3 3 3 4 5 7 9 10 12 13 13 14 14 16 18 19 21 23 25 27 29
3 1 7 4 4 8 4 10 9 6 6 1 5 13 22 5 4 17 10 8 6 4 3 3 3 4 3 4 5 7 8 9 10 11 12 14 16 18 20 23 24 27 29 32
9 10 5 3 2 12 16 8 8 4 7 10 13 16 18 18 15 12 10 7 4 4 4 4 4 4 3 4 6 7 8 9 11 13 15 17 19 21 24 26 28 29 30 32
4 7 7 11 7 2 24 4 10 9 14 12 17 16 14 15 12 9 6 5 5 5 4 3 2 4 5 7 9 10 11 13 15 17 19 21 22 24 25 26 27 28 28 28
3 2 3 3 3 4 17 8 8 11 13 14 14 12 11 11 9 7 6 4 4 3 3 4 5 7 9 10 12 13 15 17 19 21 22 22 23 24 23 24 24 25 25 25
3 11 6 4 1 3 8 17 14 13 13 12 10 8 8 8 9 8 7 6 4 3 3 4 6 8 10 12 15 16 18 19 20 21 22 23 23 24 24 23 23 23 22 22
8 6 5 4 8 4 4 18 17 15 14 11 9 8 8 8 9 8 7 4 3 4 6 8 9 10 11 13 15 16 17 18 19 19 20 21 23 23 25 27 28 25 27 28
Wind_Direction
209 191 168 75 41 15 358 33 290 110 109 306 248 269 256 212 209 223 229 234 219 222 233 240 238 229 220 215 208 200 194 185 173 141 108 57 38 39 39 40 40 41 41 42
144 96 56 32 12 325 131 258 339 87 99 240 314 287 272 243 215 212 212 224 229 217 211 220 230 232 216 214 208 204 201 197 199 183 168 92 64 51 44 45 44 45 45 43
130 60 46 305 122 111 40 357 46 33 299 229 293 281 191 44 327 236 203 213 228 220 209 220 225 234 220 215 212 208 204 199 191 176 158 125 84 52 35 40 44 43 41 38
71 4 269 217 82 354 148 13 79 321 351 327 196 283 338 122 147 125 163 211 225 228 216 222 224 231 224 219 216 213 207 201 192 187 183 153 163 67 50 46 42 42 39 36
166 146 155 130 53 327 135 301 39 345 305 37 161 94 240 138 80 76 101 195 232 232 225 215 222 232 224 214 216 214 210 206 198 194 177 163 154 114 71 54 45 39 37 32
89 53 28 76 127 359 156 167 171 277 319 29 88 123 271 134 102 338 37 21 343 254 222 217 224 223 220 215 217 211 208 211 205 201 194 188 165 126 79 50 40 33 27 26
171 66 95 318 125 31 304 169 67 9 10 227 70 88 243 57 56 356 335 347 317 330 222 210 209 208 210 216 221 213 211 212 208 206 202 199 185 155 87 45 33 19 14 12
153 260 173 336 18 165 205 70 153 190 191 210 303 229 251 126 81 38 29 33 17 32 202 212 212 216 217 221 226 218 218 216 214 211 210 208 206 202 200 24 15 7 1 359
131 94 98 27 338 18 177 215 42 98 29 50 222 256 34 131 183 141 85 94 73 87 169 210 213 222 224 227 232 224 221 221 222 217 217 216 216 223 237 312 351 351 351 347
167 94 348 101 273 121 65 315 99 354 137 270 269 242 214 208 172 148 107 88 72 61 120 196 209 217 225 233 238 233 229 226 226 221 221 222 224 229 240 269 314 336 342 342
111 102 125 23 202 175 163 208 4 85 151 190 255 263 248 158 172 153 129 110 110 101 53 332 229 224 228 232 232 230 228 226 223 224 223 224 228 233 242 257 283 314 330 333
202 108 137 191 56 25 328 248 178 138 229 206 153 269 215 167 136 138 155 145 152 350 326 311 264 230 229 228 228 232 227 226 226 227 225 228 231 238 246 257 273 294 318 326
198 187 87 346 8 13 214 208 252 87 99 198 148 258 196 126 141 178 182 188 177 320 311 304 292 249 228 228 226 233 233 228 226 225 226 229 234 243 251 258 269 286 302 313
131 93 173 186 175 122 185 202 192 149 136 211 223 256 234 197 194 190 197 183 296 309 320 308 296 276 230 231 229 228 230 231 228 226 230 235 241 247 254 258 266 276 289 303
129 183 120 259 140 151 192 177 186 192 212 186 226 232 226 256 108 249 280 307 323 329 317 305 304 294 267 229 233 229 229 230 229 227 231 239 246 253 256 256 261 271 283 294
2 151 115 311 190 205 237 209 199 214 232 258 258 270 237 283 111 128 75 341 333 332 306 311 312 304 278 239 233 231 225 233 231 230 235 243 250 255 258 255 258 268 279 286
147 135 113 253 319 213 287 195 199 198 204 212 222 241 157 178 130 100 340 330 328 319 327 347 343 334 330 253 235 234 233 232 233 236 242 247 252 254 254 251 257 267 277 280
144 136 124 171 20 274 252 140 191 215 233 221 265 235 131 126 124 120 214 172 117 111 64 50 65 69 85 199 222 226 230 232 236 240 241 241 243 244 246 251 259 268 272 274
36 135 148 152 204 299 203 180 161 172 255 217 222 240 166 154 133 135 130 144 139 113 108 115 159 182 205 192 204 217 220 224 227 230 231 233 237 242 249 255 261 267 272 277
47 31 127 145 175 222 236 173 148 131 283 297 213 215 174 147 163 203 162 169 144 136 154 182 190 202 214 203 210 216 217 218 219 225 232 239 246 252 257 262 267 272 277 280
129 110 202 188 224 280 190 156 145 114 245 61 170 182 160 140 129 144 151 149 156 157 187 231 242 242 230 229 229 225 223 226 234 245 254 262 268 272 276 278 281 283 284 285
162 160 179 159 173 261 149 119 176 170 124 133 122 127 121 135 137 147 158 160 179 197 212 247 247 238 238 254 252 247 249 256 264 270 276 281 285 287 288 289 289 288 290 291
204 185 177 188 208 145 170 113 158 145 148 146 145 137 133 138 141 163 172 187 199 216 222 238 255 269 275 279 283 284 283 285 286 289 290 292 293 294 295 295 296 298 299 299
262 184 150 96 263 177 193 197 174 161 165 165 163 147 151 154 169 176 180 178 205 220 242 270 283 289 292 294 294 296 297 298 299 300 301 301 301 302 302 302 303 302 303 302
183 138 157 266 167 125 188 209 197 177 175 174 164 163 174 182 177 192 186 185 201 243 276 288 296 299 302 302 302 303 304 305 306 308 309 309 308 308 306 305 307 306 305 306
189 170 171 209 190 152 125 185 196 191 187 198 206 186 176 179 173 182 184 200 242 280 294 297 300 303 304 306 308 310 311 312 313 313 312 312 312 311 311 310 306 303 304 303